Location: Owl River
(54.8872°N, 111.8867°W)
Time: 01:28:13
(UTC+00:00)

BlueWalker 3 - Visible Passes

Search period start: 29 November 2023 00:00
Search period end: 09 December 2023 00:00
Orbit: 489 x 504 km, 53.2° (Epoch: 28 November)

Date Brightness Start Highest point End Pass type
(mag) Time Alt. Az. Time Alt. Az. Time Alt. Az.
29 Nov 5.0 11:25:33 14° E 11:25:33 14° E 11:26:09 10° E visible
29 Nov 2.4 13:00:07 43° SW 13:00:30 45° SSW 13:04:10 10° SE visible
29 Nov 4.1 14:35:52 10° WSW 14:38:12 16° SW 14:40:31 10° S visible
30 Nov 2.8 12:38:31 41° S 12:38:31 41° S 12:41:35 10° SE visible
30 Nov 4.0 14:13:16 10° WSW 14:15:37 16° SW 14:17:58 10° S visible
01 Dec 3.6 12:16:57 28° SE 12:16:57 28° SE 12:19:00 10° SE visible
01 Dec 3.9 13:51:31 13° WSW 13:53:01 16° SW 13:55:24 10° S visible
02 Dec 4.5 11:55:24 17° SE 11:55:24 17° SE 11:56:23 10° SE visible
02 Dec 3.8 13:29:58 16° SW 13:30:25 16° SW 13:32:48 10° S visible
03 Dec 4.0 13:08:28 16° SSW 13:08:28 16° SSW 13:10:12 10° S visible
04 Dec 4.4 12:47:01 12° S 12:47:01 12° S 12:47:35 10° S visible
